Woodruff, WI

8:31 PM CST on December 08, 2016 (GMT -0600)
Lakeland-Lee Memorial

Weather History for KARV - September, 2013

Change the Weather History Date:

Friday, September 20, 2013

  Actual Average Record
Temperature  
Mean Temperature 58 °F -  
Max Temperature 67 °F 64 °F 85 °F (1908)
Min Temperature 49 °F 42 °F 27 °F (1973)
Degree Days  
Heating Degree Days 7    
Growing Degree Days 8 (Base 50)    
Moisture  
Dew Point 56 °F    
Average Humidity 85    
Maximum Humidity 94    
Minimum Humidity 63    
Precipitation  
Precipitation 0.05 in - - ()
Sea Level Pressure  
Sea Level Pressure 29.75 in    
Wind  
Wind Speed 6 mph (WNW)    
Max Wind Speed 15 mph    
Max Gust Speed 22 mph    
Visibility 9 miles    
Events Rain    
Averages and records for this station are not official NWS values.
T = Trace of Precipitation, MM = Missing Value Source: NWS Daily Summary

Daily Weather History Graph

Daily Weather History Graph

Search for Another Location

Airport or City:

Trip Planner

Search our weather history database for the weather conditions in past years. The results will help you decide how hot, cold, wet, or windy it might be!

Date:

Astronomy

Sep. 20, 2013 Rise Set
Actual Time 6:43 AM CDT 6:59 PM CDT
Civil Twilight 6:13 AM CDT 7:29 PM CDT
Nautical Twilight 5:38 AM CDT 8:04 PM CDT
Astronomical Twilight 5:02 AM CDT 8:40 PM CDT
Moon 7:25 PM CDT (9/20) 8:04 AM CDT (9/20)
Length of Visible Light 13h 15m
Length of Day
12h 16m
Full, 98% of the Moon is Illuminated
Sep 20
Full
Sep 26
Last Quarter
Oct 4
New
Oct 11
First Quarter
Oct 18
Full

Hourly Weather History & Observations

Time (CDT) Temp. Dew Point Humidity Pressure Visibility Wind Dir Wind Speed Gust Speed Precip Events Conditions
12:15 AM 64.8 °F 62.8 °F 93% 29.72 in 10.0 mi WNW 4.6 mph - N/A   Overcast
12:35 AM 64.8 °F 62.8 °F 93% 29.72 in 10.0 mi WNW 3.5 mph - N/A   Overcast
12:55 AM 64.6 °F 62.8 °F 94% - 7.0 mi Calm Calm - N/A   Overcast
1:15 AM 64.6 °F 62.8 °F 94% 29.71 in 7.0 mi West 3.5 mph - N/A   Overcast
1:35 AM 64.6 °F 62.8 °F 94% 29.71 in 7.0 mi WNW 3.5 mph - N/A   Overcast
1:55 AM 64.8 °F 63.0 °F 94% 29.71 in 7.0 mi West 3.5 mph - N/A   Light Drizzle
2:15 AM 64.6 °F 62.8 °F 94% - 5.0 mi WSW 4.6 mph - N/A Rain Rain
2:35 AM 64.6 °F 62.8 °F 94% 29.71 in 7.0 mi WSW 4.6 mph - N/A   Overcast
2:55 AM 64.6 °F 62.8 °F 94% 29.71 in 5.0 mi West 3.5 mph - N/A   Overcast
3:15 AM 64.4 °F 62.6 °F 94% 29.70 in 5.0 mi West 3.5 mph - N/A   Overcast
3:35 AM 64.4 °F 62.6 °F 94% 29.70 in 7.0 mi West 3.5 mph - N/A   Overcast
3:55 AM 64.4 °F 62.6 °F 94% 29.71 in 7.0 mi West 4.6 mph - N/A   Overcast
4:15 AM 64.4 °F 62.6 °F 94% - 7.0 mi WNW 5.8 mph - N/A   Overcast
4:35 AM 64.4 °F 62.6 °F 94% 29.70 in 5.0 mi WNW 3.5 mph - N/A   Overcast
4:55 AM 64.4 °F 62.6 °F 94% 29.70 in 5.0 mi Calm Calm - N/A   Overcast
5:15 AM 64.4 °F 62.6 °F 94% 29.70 in 5.0 mi West 4.6 mph - N/A   Overcast
5:35 AM 64.4 °F 62.6 °F 94% 29.69 in 4.0 mi West 5.8 mph - N/A Rain Light Rain
5:55 AM 63.5 °F 61.7 °F 94% 29.69 in 4.0 mi WNW 6.9 mph - N/A   Overcast
6:15 AM 63.1 °F 61.3 °F 94% 29.70 in 5.0 mi West 8.1 mph - N/A   Overcast
6:35 AM 63.0 °F 61.0 °F 93% 29.71 in 7.0 mi West 6.9 mph - N/A   Overcast
6:55 AM 61.9 °F 59.9 °F 93% 29.73 in 4.0 mi WNW 11.5 mph 17.3 mph N/A   Overcast
7:15 AM 61.9 °F 59.9 °F 93% 29.74 in 4.0 mi West 6.9 mph 16.1 mph N/A Rain Light Rain
7:35 AM 61.9 °F 59.9 °F 93% 29.74 in 10.0 mi WNW 9.2 mph 17.3 mph N/A   Overcast
7:55 AM 61.9 °F 59.4 °F 91% 29.73 in 10.0 mi NW 6.9 mph - N/A   Mostly Cloudy
8:15 AM 61.9 °F 59.4 °F 91% 29.71 in 10.0 mi Calm Calm - N/A   Mostly Cloudy
8:35 AM 61.9 °F 59.4 °F 91% 29.71 in 10.0 mi West 3.5 mph - N/A   Mostly Cloudy
8:55 AM 60.6 °F 58.5 °F 93% 29.72 in 10.0 mi WSW 4.6 mph - N/A   Mostly Cloudy
9:15 AM 61.9 °F 59.5 °F 92% 29.73 in 10.0 mi WSW 6.9 mph - N/A   Scattered Clouds
9:35 AM 61.9 °F 59.4 °F 91% 29.74 in 10.0 mi West 9.2 mph - N/A   Mostly Cloudy
9:55 AM 61.9 °F 58.5 °F 89% 29.74 in 10.0 mi West 6.9 mph - N/A   Mostly Cloudy
10:15 AM 61.9 °F 57.0 °F 84% 29.75 in 10.0 mi WNW 5.8 mph 16.1 mph N/A   Overcast
10:35 AM 63.1 °F 56.1 °F 78% 29.75 in 10.0 mi West 11.5 mph - N/A   Mostly Cloudy
10:55 AM 63.5 °F 56.3 °F 77% 29.74 in 10.0 mi WNW 9.2 mph - N/A   Scattered Clouds
11:15 AM 63.1 °F 55.4 °F 76% 29.75 in 10.0 mi West 10.4 mph 18.4 mph N/A   Scattered Clouds
11:35 AM 63.1 °F 55.0 °F 75% 29.75 in 10.0 mi West 6.9 mph - N/A   Mostly Cloudy
11:55 AM 64.4 °F 55.6 °F 73% 29.74 in 10.0 mi West 9.2 mph - N/A   Scattered Clouds
12:15 PM 65.5 °F 53.6 °F 65% 29.73 in 10.0 mi West 6.9 mph - N/A   Scattered Clouds
12:35 PM 66.6 °F 54.9 °F 66% 29.73 in 10.0 mi West 11.5 mph 16.1 mph N/A   Mostly Cloudy
12:55 PM 67.1 °F 54.3 °F 63% 29.72 in 10.0 mi West 10.4 mph - N/A   Mostly Cloudy
1:15 PM 64.4 °F 54.0 °F 69% 29.73 in 10.0 mi West 15.0 mph 20.7 mph N/A   Mostly Cloudy
1:35 PM 61.9 °F 54.1 °F 76% 29.73 in 10.0 mi NW 8.1 mph 18.4 mph N/A   Overcast
1:55 PM 63.5 °F 55.2 °F 74% 29.73 in 10.0 mi WNW 6.9 mph 17.3 mph N/A   Mostly Cloudy
2:15 PM 59.4 °F 56.1 °F 89% 29.74 in 3.0 mi NNW 8.1 mph - 0.05 in Rain Rain
2:35 PM 59.4 °F 56.8 °F 91% 29.74 in 7.0 mi NW 4.6 mph - 0.05 in   Light Drizzle
2:55 PM 59.4 °F 56.3 °F 90% 29.74 in 10.0 mi NW 12.7 mph 17.3 mph 0.05 in   Overcast
3:15 PM 59.4 °F 54.9 °F 85% 29.75 in 10.0 mi WNW 12.7 mph 21.9 mph N/A   Mostly Cloudy
3:35 PM 58.8 °F 54.1 °F 84% 29.76 in 10.0 mi NW 10.4 mph 18.4 mph N/A   Overcast
3:55 PM 56.8 °F 52.3 °F 85% 29.76 in 10.0 mi NW 11.5 mph - N/A   Overcast
4:15 PM 59.4 °F 52.3 °F 78% 29.76 in 10.0 mi NW 10.4 mph 20.7 mph N/A   Overcast
4:35 PM 59.4 °F 52.2 °F 77% 29.77 in 10.0 mi West 10.4 mph - N/A   Mostly Cloudy
4:55 PM 57.4 °F 50.9 °F 79% 29.77 in 10.0 mi NW 10.4 mph 17.3 mph N/A   Overcast
5:15 PM 58.5 °F 51.3 °F 77% 29.78 in 10.0 mi NW 9.2 mph - N/A   Overcast
5:35 PM 59.4 °F 51.3 °F 75% 29.78 in 10.0 mi NNW 10.4 mph - N/A   Mostly Cloudy
5:55 PM 58.1 °F 50.2 °F 75% 29.78 in 10.0 mi NW 4.6 mph - N/A   Scattered Clouds
6:15 PM 56.8 °F 48.7 °F 74% 29.79 in 10.0 mi NW 9.2 mph - N/A   Scattered Clouds
6:35 PM 56.8 °F 49.6 °F 77% 29.79 in 10.0 mi NW 5.8 mph - N/A   Overcast
6:55 PM 56.8 °F 50.5 °F 79% 29.79 in 10.0 mi NNW 8.1 mph - N/A   Overcast
7:15 PM 56.8 °F 50.9 °F 80% 29.79 in 10.0 mi NW 6.9 mph - N/A   Overcast
7:35 PM 56.8 °F 50.0 °F 78% 29.80 in 10.0 mi NW 6.9 mph - N/A   Overcast
7:55 PM 54.5 °F 47.8 °F 78% 29.81 in 10.0 mi NW 6.9 mph - N/A   Mostly Cloudy
8:15 PM 54.5 °F 48.2 °F 79% 29.81 in 10.0 mi NW 4.6 mph - N/A   Mostly Cloudy
8:35 PM 52.0 °F 46.6 °F 82% 29.82 in 10.0 mi NW 4.6 mph - N/A   Scattered Clouds
8:55 PM 51.8 °F 46.6 °F 82% 29.82 in 10.0 mi NW 4.6 mph - N/A   Scattered Clouds
9:15 PM 51.8 °F 46.8 °F 83% 29.82 in 10.0 mi NW 3.5 mph - N/A   Mostly Cloudy
9:35 PM 51.8 °F 46.9 °F 83% 29.82 in 10.0 mi NW 4.6 mph - N/A   Scattered Clouds
9:55 PM 51.8 °F 47.5 °F 85% 29.82 in 10.0 mi NW 4.6 mph - N/A   Clear
10:15 PM 51.8 °F 46.9 °F 83% 29.82 in 10.0 mi NW 5.8 mph - N/A   Clear
10:35 PM 51.8 °F 47.3 °F 85% 29.82 in 10.0 mi NNW 5.8 mph - N/A   Clear
10:55 PM 51.4 °F 47.3 °F 86% 29.83 in 10.0 mi NW 4.6 mph - N/A   Clear
11:15 PM 49.3 °F 45.5 °F 87% 29.83 in 10.0 mi NW 4.6 mph - N/A   Clear
11:35 PM 51.8 °F 48.2 °F 88% 29.83 in 10.0 mi NW 3.5 mph - N/A   Mostly Cloudy
11:55 PM 51.8 °F 48.2 °F 88% 29.82 in 10.0 mi NW 4.6 mph - N/A   Overcast